Retour au catalogue

STARLINK-3678

ActifCommunicationsVLEO
NORAD 52121·PAYLOAD·🇺🇸 United States

Lancé Mar 19, 2022 depuis Cape Canaveral Space Force Station

Loading…

Prochains Passages (prochaines 24 heures)

TLE

FraisSource: CelesTrak SupGP

Époque: Sep 15, 2026, 02:09 UTC

1 52121C 22029AK  26258.09006944  .00023490  00000+0  67224-3 0  2580
2 52121  53.1584 293.0425 0001471  90.1502 106.9966 15.35378932    18

Suivez STARLINK-3678 en temps réel avec AllMySat

Download on the App Store